This is the latest recevied weather packets stored in our database for station/object IW2NIA-3. If no packets are shown the sender has not sent any weather packets the latest 10 day(s).
| Time | Temp. | Humidity | Pressure | Rain* | Wind** | Luminosity | Snow |
|---|---|---|---|---|---|---|---|
| 1777764820 | 12.22° C | 75% | 1019.8 hPa | 0 mm | - | - | - |
| 1777763915 | 12.22° C | 73% | 1019.9 hPa | 0 mm | - | - | - |
| 1777763009 | 12.22° C | 73% | 1019.9 hPa | 0 mm | - | - | - |
| 1777762108 | 12.22° C | 73% | 1020 hPa | 0 mm | - | - | - |
| 1777761207 | 12.78° C | 72% | 1020.1 hPa | 0 mm | - | - | - |
| 1777760320 | 12.78° C | 71% | 1020 hPa | 0 mm | - | - | - |
| 1777759419 | 12.78° C | 70% | 1020.1 hPa | 0 mm | - | - | - |
| 1777758514 | 12.78° C | 69% | 1020 hPa | 0 mm | - | - | - |
| 1777757607 | 12.78° C | 70% | 1020 hPa | 0 mm | - | - | - |
| 1777756722 | 12.78° C | 70% | 1020.1 hPa | 0 mm | - | - | - |
| 1777755817 | 13.33° C | 68% | 1020.2 hPa | 0 mm | - | - | - |
| 1777754908 | 13.89° C | 68% | 1020.2 hPa | 0 mm | - | - | - |
| 1777754023 | 14.44° C | 68% | 1020.2 hPa | 0 mm | - | - | - |
| 1777753120 | 15° C | 67% | 1020.1 hPa | 0 mm | - | - | - |
| 1777752214 | 15° C | 66% | 1020.1 hPa | 0 mm | - | - | - |
| 1777751323 | 15.56° C | 64% | 1020 hPa | 0 mm | - | - | - |
| 1777750413 | 16.11° C | 61% | 1019.9 hPa | 0 mm | - | - | - |
| 1777749507 | 17.22° C | 59% | 1019.9 hPa | 0 mm | - | - | - |
| 1777748619 | 17.78° C | 57% | 1019.8 hPa | 0 mm | - | - | - |
| 1777747717 | 17.78° C | 55% | 1019.6 hPa | 0 mm | - | - | - |
| 1777746807 | 18.89° C | 51% | 1019.7 hPa | 0 mm | - | - | - |
| 1777745904 | 19.44° C | 47% | 1019.5 hPa | 0 mm | - | - | - |
| 1777745019 | 20° C | 46% | 1019.6 hPa | 0 mm | - | - | - |
| 1777744118 | 21.11° C | 43% | 1019.5 hPa | 0 mm | - | - | - |
| 1777743209 | 21.11° C | 39% | 1019.5 hPa | 0 mm | - | - | - |
* Rain latest hour (hover to see other rain measurements)
** Current wind speed in m/s (hover to see current wind gust speed)